User: anonymous   Login
Location: Choisy
(48.7685°N, 2.4187°E)
Time: 01:28:43
(UTC+00:00)
Language:

In-Cosmos 22 Rocket - Orbit

View from above orbital plane
View from above orbital plane
View from above satellite
View from above satellite

Ground track
Ground track

The orbit data is extracted from the following two-line orbital elements,

1 12646U 81075B   22018.55912914  .00000045  00000-0  16365-4 0  9993
2 12646  81.2249  60.8042 0066681 242.2462 224.8940 14.15929110 88745
Epoch (UTC): 18 January 2022 13:25:08
Eccentricity: 0.0066681
inclination: 81.2249°
perigee height: 791 km
apogee height: 887 km
right ascension of ascending node: 60.8042°
argument of perigee: 242.2462°
revolutions per day: 14.15929110
mean anomaly at epoch: 224.8940°
orbit number at epoch: 8874

The dashed part of the orbit path shows where the satellite is in the earth's shadow,  

DLR